User: anonymous   Login
Location: Newark
(48.8604°N, 2.3376°E)
Time: 17:13:30
(UTC+00:00)
Language:

Hubble Space Telescope - Orbit

View from above orbital plane
View from above orbital plane
View from above satellite
View from above satellite

Ground track
Ground track

The orbit data is extracted from the following two-line orbital elements,

1 20580U 90037B   21294.18237332  .00000873  00000-0  41731-4 0  9999
2 20580  28.4708 313.0909 0002577 342.8147  93.8597 15.09789664530274
Epoch (UTC): 21 October 2021 04:22:37
Eccentricity: 0.0002577
inclination: 28.4708°
perigee height: 535 km
apogee height: 538 km
right ascension of ascending node: 313.0909°
argument of perigee: 342.8147°
revolutions per day: 15.09789664
mean anomaly at epoch: 93.8597°
orbit number at epoch: 53027

The dashed part of the orbit path shows where the satellite is in the earth's shadow,  

DLR